Погода в Партизанском

Россия / Калининградская область     54°35′32″N   20°37′24″E
темп.,
°C
ветер,
м/с
пор.,
м/с
влажн.,
%
обл.,
%
осадки,
мм/ч
давл.,
гПа
погр.,
м
28 сентября, вт
вт2823:00+8вюв4128439 0.0 1025328
02:00+7вюв4119432 0.0 1025241
05:00+6юв411955 0.0 1025243
08:00+8юв411845 0.0 1025328
11:00+13юв68599 0.0 1026747
14:00+16юв6749100 0.0 10251135
17:00+14юв4856100 0.0 1026704
20:00+11юв3971100 0.0 1026243
29 сентября, ср
ср2923:00+9юв41176100 0.0 1027295
02:00+8юв412845 0.0 1028306
05:00+7юв4118764 0.0 1027260
08:00+8юв5128065 0.0 1027365
11:00+14юв61056100 0.0 1027868
14:00+16юв794899 0.0 10251437
17:00+15юв6115318 0.0 10241257
20:00+11вюв5146728 0.0 1024582
30 сентября, чт
чт3023:00+10юв71670100 0.0 1023594
02:00+10юв71467100 0.0 1022520
05:00+11ююв61267100 0.1 1022575
08:00+9ююв41084100 1.6 1022428
11:00+12ююз4687100 0.0 1024449
14:00+16зюз4556100 0.3 10241084
17:00+14юз3655100 0.0 1025239
20:00+9ююз3763100 0.0 1026110
1 октября, пт
пт123:00+8юз367368 0.0 102794
02:00+8юз34781 0.0 102860
05:00+7ююз35796 0.0 102874
08:00+8ю387417 0.0 1028211
11:00+14ю584842 0.0 1027893
14:00+16ю573844 0.0 10251484
17:00+15ю4846100 0.0 1024386
20:00+11ююв51358100 0.0 1023366
2 октября, сб
сб223:00+10ююв51478100 0.0 1022383
02:00+10ююв51389100 0.0 1020381
05:00+9ююв5138964 0.0 1018325
08:00+11ю61481100 0.0 1017438
11:00+16ю7116097 0.0 1016755
14:00+19ююз61054100 0.0 10151150
17:00+17ююз51058100 0.0 10151025
20:00+14ю41261100 0.0 1015380